QPF
0.00 0.00 0.00 0.00 0.00 0.00 0.00 0.00 0.00 0.00 0.00 0.00 0.00 0.00 0.00 0.00 0.00 0.00 0.00 0.00 0.00 0.00 0.00 0.00 0.00 0.00 0.00 0.00 0.00 0.00 0.00 0.00 0.00 0.00 0.00 0.00 0.00 0.00 0.00 0.00 0.00 0.00 0.00 0.01
0.00 0.00 0.00 0.00 0.00 0.00 0.00 0.00 0.00 0.00 0.00 0.00 0.00 0.00 0.00 0.00 0.00 0.00 0.00 0.00 0.00 0.00 0.00 0.00 0.00 0.00 0.00 0.00 0.00 0.00 0.00 0.00 0.00 0.00 0.00 0.00 0.00 0.00 0.00 0.00 0.00 0.00 0.00 0.01
0.00 0.00 0.00 0.00 0.00 0.00 0.00 0.00 0.00 0.00 0.00 0.00 0.00 0.00 0.00 0.00 0.00 0.00 0.00 0.00 0.00 0.00 0.00 0.00 0.00 0.00 0.00 0.00 0.00 0.00 0.00 0.00 0.00 0.00 0.00 0.00 0.00 0.00 0.00 0.00 0.00 0.00 0.00 0.01
0.00 0.00 0.00 0.00 0.00 0.00 0.00 0.00 0.00 0.00 0.00 0.00 0.00 0.00 0.00 0.00 0.00 0.00 0.00 0.00 0.00 0.00 0.00 0.00 0.00 0.00 0.00 0.00 0.00 0.00 0.00 0.00 0.00 0.00 0.00 0.00 0.00 0.00 0.00 0.00 0.00 0.00 0.00 0.00
0.00 0.00 0.00 0.00 0.00 0.00 0.00 0.00 0.00 0.00 0.00 0.00 0.00 0.00 0.00 0.00 0.00 0.00 0.00 0.00 0.00 0.00 0.00 0.00 0.00 0.00 0.00 0.00 0.00 0.00 0.00 0.00 0.00 0.00 0.00 0.00 0.00 0.00 0.00 0.00 0.00 0.00 0.00 0.00
0.00 0.00 0.00 0.00 0.00 0.00 0.00 0.00 0.00 0.00 0.00 0.00 0.00 0.00 0.00 0.00 0.00 0.00 0.00 0.00 0.00 0.00 0.00 0.00 0.00 0.00 0.00 0.00 0.00 0.00 0.00 0.00 0.00 0.00 0.00 0.00 0.00 0.00 0.00 0.00 0.00 0.00 0.00 0.00
0.00 0.00 0.00 0.00 0.00 0.00 0.00 0.00 0.00 0.00 0.00 0.00 0.00 0.00 0.00 0.00 0.00 0.00 0.00 0.00 0.00 0.00 0.00 0.00 0.00 0.00 0.00 0.00 0.00 0.00 0.00 0.00 0.00 0.00 0.00 0.00 0.00 0.00 0.00 0.00 0.00 0.00 0.00 0.00
0.00 0.00 0.00 0.00 0.00 0.00 0.00 0.00 0.00 0.00 0.00 0.00 0.00 0.00 0.00 0.00 0.00 0.00 0.00 0.00 0.00 0.00 0.00 0.00 0.00 0.00 0.00 0.00 0.00 0.00 0.00 0.00 0.00 0.00 0.00 0.00 0.00 0.00 0.00 0.00 0.00 0.00 0.00 0.00
0.00 0.00 0.00 0.00 0.00 0.00 0.00 0.00 0.00 0.00 0.00 0.00 0.00 0.00 0.00 0.00 0.00 0.00 0.00 0.00 0.00 0.00 0.00 0.00 0.00 0.00 0.00 0.00 0.00 0.00 0.00 0.00 0.00 0.00 0.00 0.00 0.00 0.00 0.00 0.00 0.01 0.01 0.00 0.00
0.00 0.00 0.00 0.00 0.00 0.00 0.00 0.00 0.00 0.00 0.00 0.00 0.00 0.00 0.00 0.00 0.00 0.00 0.00 0.00 0.00 0.00 0.00 0.00 0.00 0.00 0.00 0.00 0.00 0.00 0.00 0.00 0.00 0.00 0.00 0.00 0.00 0.00 0.00 0.01 0.04 0.01 0.01 0.01
0.00 0.00 0.00 0.00 0.00 0.00 0.00 0.00 0.00 0.00 0.00 0.00 0.00 0.00 0.00 0.00 0.00 0.00 0.00 0.00 0.00 0.00 0.00 0.00 0.00 0.00 0.00 0.00 0.00 0.00 0.00 0.00 0.00 0.00 0.00 0.00 0.00 0.00 0.00 0.01 0.03 0.02 0.02 0.02
0.00 0.00 0.00 0.00 0.00 0.00 0.00 0.00 0.00 0.00 0.00 0.00 0.00 0.00 0.00 0.00 0.00 0.00 0.00 0.00 0.00 0.00 0.00 0.00 0.00 0.00 0.00 0.00 0.00 0.00 0.00 0.00 0.00 0.00 0.00 0.00 0.00 0.00 0.00 0.00 0.01 0.01 0.01 0.02
0.00 0.00 0.00 0.00 0.00 0.00 0.00 0.00 0.00 0.00 0.00 0.00 0.00 0.00 0.00 0.00 0.00 0.00 0.00 0.00 0.00 0.00 0.00 0.00 0.00 0.00 0.00 0.00 0.00 0.00 0.00 0.00 0.00 0.00 0.00 0.00 0.00 0.00 0.00 0.00 0.00 0.00 0.00 0.01
0.00 0.00 0.00 0.00 0.00 0.00 0.00 0.00 0.00 0.00 0.00 0.00 0.00 0.00 0.00 0.00 0.00 0.00 0.00 0.00 0.00 0.00 0.00 0.00 0.00 0.00 0.00 0.00 0.00 0.00 0.00 0.00 0.00 0.00 0.00 0.00 0.00 0.00 0.00 0.00 0.00 0.00 0.00 0.00
0.00 0.00 0.00 0.00 0.00 0.00 0.00 0.00 0.00 0.00 0.00 0.00 0.00 0.00 0.00 0.00 0.00 0.00 0.00 0.00 0.00 0.00 0.00 0.00 0.00 0.00 0.00 0.00 0.00 0.00 0.00 0.00 0.00 0.00 0.00 0.00 0.00 0.00 0.00 0.00 0.00 0.00 0.00 0.00
0.00 0.00 0.00 0.00 0.00 0.00 0.00 0.00 0.00 0.00 0.00 0.00 0.00 0.00 0.00 0.00 0.00 0.00 0.00 0.00 0.00 0.00 0.00 0.00 0.00 0.00 0.00 0.00 0.00 0.00 0.00 0.00 0.00 0.00 0.00 0.00 0.00 0.00 0.00 0.00 0.00 0.00 0.00 0.00
0.00 0.00 0.00 0.00 0.00 0.00 0.00 0.00 0.00 0.00 0.00 0.00 0.00 0.00 0.00 0.00 0.00 0.00 0.00 0.00 0.00 0.00 0.00 0.00 0.00 0.00 0.00 0.00 0.00 0.00 0.00 0.00 0.00 0.00 0.00 0.00 0.00 0.00 0.00 0.00 0.01 0.00 0.00 0.01
0.00 0.00 0.00 0.00 0.00 0.00 0.00 0.00 0.00 0.00 0.00 0.00 0.00 0.00 0.00 0.00 0.00 0.00 0.00 0.00 0.00 0.00 0.00 0.00 0.00 0.00 0.00 0.00 0.00 0.00 0.00 0.00 0.00 0.00 0.00 0.00 0.00 0.00 0.00 0.00 0.01 0.01 0.00 0.00
0.00 0.00 0.00 0.00 0.00 0.00 0.00 0.00 0.00 0.00 0.00 0.00 0.00 0.00 0.00 0.00 0.00 0.00 0.00 0.00 0.00 0.00 0.00 0.00 0.00 0.00 0.00 0.00 0.00 0.00 0.00 0.00 0.00 0.00 0.00 0.00 0.00 0.00 0.00 0.00 0.01 0.01 0.01 0.01
0.00 0.00 0.00 0.00 0.00 0.00 0.00 0.00 0.00 0.00 0.00 0.00 0.00 0.00 0.00 0.00 0.00 0.00 0.00 0.00 0.00 0.00 0.00 0.00 0.00 0.00 0.00 0.00 0.00 0.00 0.00 0.00 0.00 0.00 0.00 0.00 0.00 0.00 0.00 0.00 0.01 0.01 0.01 0.01
0.00 0.00 0.00 0.00 0.00 0.00 0.00 0.00 0.00 0.00 0.00 0.00 0.00 0.00 0.00 0.00 0.00 0.00 0.00 0.00 0.00 0.00 0.00 0.00 0.00 0.00 0.00 0.00 0.00 0.00 0.00 0.00 0.00 0.00 0.00 0.00 0.00 0.00 0.00 0.00 0.00 0.01 0.01 0.01
0.00 0.00 0.00 0.00 0.00 0.00 0.00 0.00 0.00 0.00 0.00 0.00 0.00 0.00 0.00 0.00 0.00 0.00 0.00 0.00 0.00 0.00 0.00 0.00 0.00 0.00 0.00 0.00 0.00 0.00 0.00 0.00 0.00 0.00 0.00 0.00 0.00 0.00 0.00 0.00 0.00 0.01 0.01 0.01
0.00 0.00 0.00 0.00 0.00 0.00 0.00 0.00 0.00 0.00 0.00 0.00 0.00 0.00 0.00 0.00 0.00 0.00 0.00 0.00 0.00 0.00 0.00 0.00 0.00 0.00 0.00 0.00 0.00 0.00 0.00 0.00 0.00 0.00 0.00 0.00 0.00 0.00 0.00 0.00 0.00 0.00 0.01 0.01
0.00 0.00 0.00 0.00 0.00 0.00 0.00 0.00 0.00 0.00 0.00 0.00 0.00 0.00 0.00 0.00 0.00 0.00 0.00 0.00 0.00 0.00 0.00 0.00 0.00 0.00 0.00 0.00 0.00 0.00 0.00 0.00 0.00 0.00 0.00 0.00 0.00 0.00 0.00 0.00 0.00 0.00 0.01 0.01
0.00 0.00 0.00 0.00 0.00 0.00 0.00 0.00 0.00 0.00 0.00 0.00 0.00 0.00 0.00 0.00 0.00 0.00 0.00 0.00 0.00 0.00 0.00 0.00 0.00 0.00 0.00 0.00 0.00 0.00 0.00 0.00 0.00 0.00 0.00 0.00 0.00 0.00 0.00 0.00 0.00 0.01 0.01 0.01
0.00 0.00 0.00 0.00 0.00 0.00 0.00 0.00 0.00 0.00 0.00 0.00 0.00 0.00 0.00 0.00 0.00 0.00 0.00 0.00 0.00 0.00 0.00 0.00 0.00 0.00 0.00 0.00 0.00 0.00 0.00 0.00 0.00 0.00 0.00 0.00 0.00 0.00 0.00 0.00 0.00 0.01 0.01 0.01
0.00 0.00 0.00 0.00 0.00 0.00 0.00 0.00 0.00 0.00 0.00 0.00 0.00 0.00 0.00 0.00 0.00 0.00 0.00 0.00 0.00 0.00 0.00 0.00 0.00 0.00 0.00 0.00 0.00 0.00 0.00 0.00 0.00 0.00 0.00 0.00 0.00 0.00 0.00 0.00 0.00 0.01 0.01 0.01
MSLP
1029.13 1028.80 1028.48 1028.21 1028.06 1028.06 1028.24 1028.59 1029.12 1029.81 1030.62 1031.54 1032.51 1033.51 1034.48 1035.41 1036.26 1037.01 1037.64 1038.14 1038.51 1038.74 1038.84 1038.83 1038.69 1038.44 1038.08 1037.63 1037.09 1036.47 1035.79 1035.06 1034.30 1033.52 1032.73 1031.93 1031.12 1030.29 1029.41 1028.47 1027.45 1026.36 1025.19 1023.97
1029.56 1029.12 1028.64 1028.20 1027.88 1027.73 1027.79 1028.08 1028.61 1029.36 1030.27 1031.31 1032.42 1033.53 1034.60 1035.58 1036.45 1037.17 1037.76 1038.20 1038.51 1038.71 1038.79 1038.77 1038.66 1038.44 1038.13 1037.71 1037.19 1036.58 1035.89 1035.15 1034.37 1033.57 1032.78 1031.98 1031.18 1030.36 1029.51 1028.60 1027.61 1026.54 1025.39 1024.20
1030.03 1029.45 1028.82 1028.21 1027.71 1027.41 1027.36 1027.60 1028.13 1028.92 1029.93 1031.09 1032.33 1033.56 1034.71 1035.74 1036.62 1037.33 1037.87 1038.26 1038.52 1038.67 1038.73 1038.72 1038.62 1038.43 1038.15 1037.77 1037.28 1036.68 1036.01 1035.27 1034.48 1033.69 1032.89 1032.11 1031.34 1030.55 1029.74 1028.87 1027.93 1026.91 1025.80 1024.65
1030.41 1029.72 1028.95 1028.18 1027.54 1027.11 1026.97 1027.16 1027.70 1028.54 1029.63 1030.89 1032.23 1033.56 1034.79 1035.87 1036.77 1037.46 1037.97 1038.32 1038.53 1038.65 1038.69 1038.66 1038.57 1038.41 1038.16 1037.80 1037.33 1036.76 1036.10 1035.37 1034.60 1033.82 1033.04 1032.29 1031.55 1030.81 1030.05 1029.24 1028.36 1027.40 1026.37 1025.28
1030.60 1029.82 1028.93 1028.06 1027.32 1026.81 1026.61 1026.78 1027.32 1028.20 1029.36 1030.71 1032.13 1033.53 1034.83 1035.95 1036.86 1037.55 1038.04 1038.35 1038.54 1038.62 1038.64 1038.61 1038.52 1038.37 1038.13 1037.79 1037.34 1036.79 1036.14 1035.43 1034.68 1033.92 1033.17 1032.46 1031.76 1031.08 1030.38 1029.64 1028.83 1027.95 1026.99 1025.97
1030.46 1029.63 1028.71 1027.79 1027.01 1026.48 1026.28 1026.45 1027.02 1027.94 1029.15 1030.55 1032.03 1033.48 1034.81 1035.95 1036.87 1037.56 1038.05 1038.35 1038.52 1038.59 1038.60 1038.55 1038.46 1038.30 1038.06 1037.72 1037.28 1036.74 1036.10 1035.41 1034.68 1033.95 1033.24 1032.57 1031.92 1031.30 1030.66 1029.99 1029.25 1028.44 1027.56 1026.62
1029.95 1029.13 1028.22 1027.34 1026.60 1026.12 1025.96 1026.19 1026.80 1027.76 1029.00 1030.42 1031.92 1033.39 1034.73 1035.88 1036.81 1037.50 1037.98 1038.28 1038.45 1038.52 1038.52 1038.47 1038.36 1038.20 1037.95 1037.60 1037.16 1036.62 1035.99 1035.31 1034.61 1033.91 1033.24 1032.61 1032.01 1031.43 1030.85 1030.23 1029.56 1028.82 1028.01 1027.15
1029.05 1028.30 1027.49 1026.72 1026.10 1025.73 1025.68 1026.00 1026.67 1027.67 1028.93 1030.36 1031.84 1033.29 1034.61 1035.75 1036.66 1037.36 1037.84 1038.15 1038.32 1038.40 1038.40 1038.35 1038.24 1038.06 1037.79 1037.44 1036.98 1036.44 1035.82 1035.16 1034.48 1033.81 1033.18 1032.58 1032.02 1031.49 1030.94 1030.37 1029.74 1029.06 1028.31 1027.51
1027.83 1027.20 1026.56 1025.97 1025.54 1025.36 1025.46 1025.90 1026.65 1027.69 1028.96 1030.36 1031.80 1033.20 1034.47 1035.56 1036.45 1037.13 1037.62 1037.94 1038.13 1038.22 1038.24 1038.18 1038.07 1037.87 1037.60 1037.23 1036.77 1036.23 1035.62 1034.98 1034.33 1033.69 1033.09 1032.53 1032.00 1031.48 1030.96 1030.40 1029.80 1029.15 1028.44 1027.70
1026.40 1025.94 1025.50 1025.16 1024.97 1025.02 1025.32 1025.90 1026.75 1027.83 1029.08 1030.44 1031.81 1033.12 1034.32 1035.35 1036.20 1036.86 1037.34 1037.67 1037.88 1037.99 1038.01 1037.97 1037.85 1037.65 1037.37 1037.00 1036.54 1036.01 1035.43 1034.81 1034.19 1033.59 1033.02 1032.48 1031.96 1031.45 1030.92 1030.37 1029.77 1029.12 1028.44 1027.73
1024.90 1024.62 1024.43 1024.35 1024.44 1024.74 1025.26 1026.00 1026.94 1028.06 1029.29 1030.58 1031.86 1033.08 1034.18 1035.13 1035.92 1036.55 1037.02 1037.36 1037.58 1037.70 1037.75 1037.71 1037.60 1037.40 1037.12 1036.76 1036.31 1035.81 1035.25 1034.68 1034.10 1033.53 1032.98 1032.46 1031.95 1031.43 1030.89 1030.31 1029.69 1029.03 1028.34 1027.64
1023.44 1023.36 1023.41 1023.61 1023.98 1024.54 1025.27 1026.16 1027.20 1028.34 1029.54 1030.76 1031.95 1033.05 1034.05 1034.92 1035.64 1036.22 1036.68 1037.01 1037.24 1037.38 1037.44 1037.42 1037.31 1037.12 1036.86 1036.51 1036.09 1035.61 1035.10 1034.57 1034.04 1033.51 1032.99 1032.48 1031.97 1031.43 1030.86 1030.25 1029.60 1028.91 1028.20 1027.50
1022.11 1022.21 1022.50 1022.96 1023.60 1024.39 1025.31 1026.34 1027.46 1028.62 1029.79 1030.93 1032.02 1033.02 1033.91 1034.69 1035.35 1035.89 1036.32 1036.65 1036.88 1037.04 1037.10 1037.09 1036.99 1036.82 1036.56 1036.24 1035.85 1035.42 1034.96 1034.48 1034.00 1033.52 1033.03 1032.53 1032.01 1031.46 1030.86 1030.21 1029.51 1028.78 1028.04 1027.33
1020.93 1021.21 1021.70 1022.40 1023.26 1024.25 1025.34 1026.48 1027.65 1028.82 1029.96 1031.03 1032.03 1032.94 1033.74 1034.44 1035.05 1035.55 1035.96 1036.28 1036.51 1036.67 1036.74 1036.73 1036.64 1036.48 1036.25 1035.95 1035.60 1035.22 1034.81 1034.38 1033.95 1033.51 1033.06 1032.58 1032.06 1031.49 1030.86 1030.18 1029.44 1028.68 1027.91 1027.17
1019.90 1020.33 1021.01 1021.89 1022.93 1024.08 1025.29 1026.52 1027.73 1028.89 1029.99 1031.01 1031.94 1032.77 1033.51 1034.15 1034.71 1035.19 1035.58 1035.89 1036.13 1036.28 1036.35 1036.35 1036.27 1036.11 1035.90 1035.63 1035.32 1034.98 1034.62 1034.25 1033.87 1033.48 1033.06 1032.60 1032.08 1031.51 1030.87 1030.16 1029.40 1028.61 1027.82 1027.07
1018.98 1019.55 1020.38 1021.41 1022.59 1023.85 1025.13 1026.41 1027.63 1028.79 1029.85 1030.82 1031.70 1032.48 1033.17 1033.79 1034.32 1034.79 1035.17 1035.48 1035.71 1035.87 1035.94 1035.93 1035.86 1035.71 1035.51 1035.27 1035.00 1034.70 1034.40 1034.08 1033.75 1033.39 1033.00 1032.57 1032.07 1031.50 1030.86 1030.15 1029.39 1028.59 1027.80 1027.03
1018.13 1018.84 1019.80 1020.94 1022.20 1023.52 1024.85 1026.13 1027.35 1028.48 1029.51 1030.45 1031.29 1032.05 1032.72 1033.32 1033.86 1034.32 1034.71 1035.02 1035.26 1035.41 1035.49 1035.48 1035.41 1035.28 1035.10 1034.89 1034.65 1034.40 1034.14 1033.87 1033.58 1033.26 1032.91 1032.51 1032.03 1031.49 1030.86 1030.17 1029.42 1028.64 1027.85 1027.08
1017.34 1018.18 1019.24 1020.45 1021.76 1023.11 1024.43 1025.70 1026.89 1027.99 1028.99 1029.90 1030.72 1031.47 1032.15 1032.76 1033.30 1033.77 1034.18 1034.50 1034.75 1034.91 1034.99 1035.00 1034.94 1034.83 1034.68 1034.49 1034.29 1034.08 1033.87 1033.64 1033.39 1033.12 1032.80 1032.43 1031.99 1031.48 1030.89 1030.23 1029.52 1028.77 1028.00 1027.24
1016.61 1017.56 1018.71 1019.97 1021.29 1022.62 1023.91 1025.14 1026.29 1027.35 1028.32 1029.21 1030.02 1030.77 1031.46 1032.08 1032.64 1033.14 1033.56 1033.91 1034.16 1034.34 1034.44 1034.46 1034.43 1034.35 1034.23 1034.09 1033.93 1033.77 1033.60 1033.42 1033.22 1032.98 1032.70 1032.37 1031.97 1031.49 1030.95 1030.34 1029.68 1028.97 1028.24 1027.50
1015.95 1017.02 1018.22 1019.51 1020.81 1022.10 1023.34 1024.51 1025.60 1026.61 1027.54 1028.41 1029.22 1029.98 1030.68 1031.32 1031.91 1032.42 1032.87 1033.23 1033.50 1033.70 1033.82 1033.88 1033.88 1033.84 1033.77 1033.68 1033.58 1033.48 1033.36 1033.23 1033.07 1032.88 1032.64 1032.34 1031.98 1031.56 1031.06 1030.51 1029.90 1029.24 1028.54 1027.82
1015.39 1016.55 1017.80 1019.08 1020.35 1021.58 1022.75 1023.85 1024.87 1025.83 1026.73 1027.58 1028.38 1029.13 1029.84 1030.50 1031.11 1031.64 1032.10 1032.47 1032.77 1032.99 1033.14 1033.24 1033.28 1033.30 1033.29 1033.27 1033.24 1033.20 1033.14 1033.06 1032.96 1032.81 1032.61 1032.35 1032.03 1031.65 1031.20 1030.70 1030.14 1029.53 1028.87 1028.17
1014.95 1016.18 1017.44 1018.70 1019.92 1021.08 1022.17 1023.19 1024.15 1025.06 1025.92 1026.74 1027.53 1028.28 1029.00 1029.66 1030.27 1030.81 1031.28 1031.66 1031.98 1032.22 1032.41 1032.55 1032.65 1032.73 1032.79 1032.84 1032.89 1032.92 1032.93 1032.91 1032.85 1032.75 1032.59 1032.37 1032.09 1031.74 1031.34 1030.88 1030.36 1029.79 1029.16 1028.47
1014.63 1015.89 1017.14 1018.36 1019.51 1020.59 1021.60 1022.55 1023.45 1024.30 1025.13 1025.93 1026.71 1027.46 1028.16 1028.83 1029.43 1029.97 1030.43 1030.83 1031.15 1031.41 1031.63 1031.81 1031.98 1032.12 1032.26 1032.39 1032.52 1032.62 1032.70 1032.74 1032.73 1032.67 1032.54 1032.36 1032.10 1031.79 1031.42 1031.00 1030.51 1029.97 1029.36 1028.68
1014.40 1015.64 1016.85 1018.00 1019.08 1020.08 1021.02 1021.91 1022.76 1023.58 1024.38 1025.16 1025.93 1026.67 1027.36 1028.02 1028.61 1029.13 1029.59 1029.98 1030.31 1030.59 1030.84 1031.06 1031.28 1031.49 1031.70 1031.91 1032.10 1032.28 1032.42 1032.52 1032.55 1032.53 1032.44 1032.27 1032.04 1031.75 1031.41 1031.00 1030.54 1030.02 1029.42 1028.75
1014.19 1015.39 1016.53 1017.60 1018.59 1019.52 1020.40 1021.24 1022.05 1022.85 1023.64 1024.41 1025.17 1025.91 1026.60 1027.24 1027.82 1028.33 1028.77 1029.15 1029.48 1029.78 1030.05 1030.31 1030.57 1030.84 1031.11 1031.39 1031.65 1031.88 1032.08 1032.22 1032.29 1032.30 1032.23 1032.08 1031.87 1031.59 1031.26 1030.87 1030.42 1029.91 1029.32 1028.66
1013.95 1015.06 1016.10 1017.08 1018.00 1018.86 1019.69 1020.50 1021.30 1022.09 1022.88 1023.66 1024.43 1025.16 1025.85 1026.48 1027.04 1027.54 1027.97 1028.35 1028.68 1028.98 1029.27 1029.57 1029.87 1030.18 1030.51 1030.83 1031.14 1031.42 1031.66 1031.84 1031.94 1031.96 1031.91 1031.77 1031.56 1031.29 1030.96 1030.58 1030.15 1029.65 1029.08 1028.42
1013.60 1014.59 1015.52 1016.41 1017.25 1018.07 1018.86 1019.66 1020.45 1021.26 1022.07 1022.86 1023.64 1024.38 1025.08 1025.70 1026.26 1026.76 1027.18 1027.56 1027.89 1028.20 1028.52 1028.83 1029.17 1029.52 1029.88 1030.25 1030.60 1030.91 1031.17 1031.37 1031.49 1031.52 1031.48 1031.34 1031.14 1030.87 1030.55 1030.17 1029.74 1029.26 1028.70 1028.06
Thickness
5617 5615 5609 5604 5597 5588 5575 5564 5553 5557 5550 5538 5511 5487 5465 5445 5427 5409 5391 5375 5359 5343 5326 5311 5296 5283 5272 5260 5249 5238 5227 5217 5207 5196 5185 5172 5158 5142 5125 5111 5100 5093 5092 5095
5616 5616 5606 5602 5598 5587 5576 5567 5559 5555 5547 5533 5502 5477 5455 5437 5422 5404 5387 5371 5356 5340 5323 5307 5293 5281 5269 5258 5247 5236 5225 5215 5205 5195 5183 5171 5157 5141 5125 5112 5102 5096 5095 5099
5607 5601 5608 5607 5607 5588 5580 5571 5565 5556 5546 5510 5492 5475 5453 5433 5418 5401 5385 5369 5352 5336 5319 5304 5290 5278 5267 5256 5245 5235 5225 5215 5205 5194 5183 5171 5157 5142 5128 5115 5105 5100 5099 5102
5588 5598 5607 5620 5606 5595 5586 5580 5567 5559 5536 5515 5495 5470 5448 5431 5412 5396 5382 5365 5348 5331 5315 5301 5288 5276 5265 5254 5244 5235 5225 5215 5206 5195 5184 5173 5160 5146 5132 5119 5110 5104 5102 5104
5580 5588 5595 5609 5604 5594 5582 5578 5570 5549 5525 5498 5473 5455 5437 5427 5410 5393 5379 5362 5345 5329 5314 5299 5287 5275 5264 5254 5245 5236 5228 5218 5208 5198 5187 5176 5164 5151 5138 5126 5116 5110 5106 5106
5570 5584 5595 5618 5603 5590 5580 5571 5567 5544 5519 5491 5472 5460 5449 5425 5408 5391 5376 5359 5343 5327 5312 5298 5286 5275 5265 5255 5247 5239 5230 5220 5210 5200 5190 5179 5167 5155 5143 5133 5124 5116 5112 5110
5571 5570 5595 5611 5592 5585 5575 5585 5566 5542 5521 5496 5481 5469 5448 5424 5405 5389 5374 5358 5342 5326 5311 5297 5286 5275 5265 5256 5248 5240 5231 5222 5213 5203 5193 5183 5171 5160 5149 5140 5131 5123 5118 5114
5559 5558 5594 5606 5586 5583 5587 5573 5555 5536 5519 5498 5477 5458 5439 5421 5404 5387 5371 5356 5341 5325 5310 5298 5286 5276 5266 5258 5249 5241 5233 5224 5216 5207 5197 5188 5177 5168 5159 5149 5141 5132 5125 5121
5600 5623 5631 5609 5603 5597 5580 5565 5548 5530 5511 5492 5470 5452 5436 5418 5400 5385 5369 5354 5339 5324 5311 5299 5288 5277 5268 5260 5252 5244 5235 5227 5219 5212 5203 5194 5185 5177 5169 5161 5152 5144 5135 5128
5609 5628 5625 5610 5601 5591 5577 5564 5546 5528 5509 5490 5470 5451 5433 5417 5399 5383 5368 5352 5338 5324 5312 5299 5289 5279 5270 5262 5255 5246 5238 5231 5224 5216 5209 5200 5193 5185 5178 5170 5162 5154 5145 5138
5617 5625 5621 5614 5600 5589 5574 5557 5540 5523 5506 5489 5470 5450 5432 5416 5399 5383 5369 5352 5338 5324 5313 5301 5291 5281 5272 5265 5257 5249 5241 5235 5228 5222 5213 5205 5198 5191 5185 5177 5171 5163 5155 5148
5640 5643 5627 5625 5607 5589 5571 5555 5539 5520 5500 5483 5469 5451 5433 5415 5398 5381 5366 5351 5338 5326 5316 5304 5292 5282 5274 5267 5260 5252 5245 5239 5233 5226 5218 5211 5202 5196 5190 5184 5179 5172 5165 5159
5652 5643 5628 5620 5603 5588 5574 5556 5537 5521 5502 5481 5464 5449 5432 5412 5395 5380 5365 5352 5341 5329 5318 5306 5294 5285 5277 5270 5263 5256 5248 5242 5236 5230 5222 5215 5209 5201 5195 5191 5185 5179 5173 5167
5639 5627 5618 5605 5593 5582 5567 5550 5531 5513 5496 5480 5462 5445 5428 5411 5395 5380 5367 5355 5343 5331 5319 5308 5297 5288 5280 5272 5266 5259 5251 5245 5240 5233 5225 5218 5212 5206 5201 5196 5191 5186 5181 5175
5633 5628 5620 5603 5589 5573 5558 5541 5523 5504 5486 5471 5457 5442 5426 5411 5396 5383 5369 5356 5344 5332 5321 5310 5300 5291 5283 5275 5268 5261 5255 5249 5244 5237 5230 5223 5217 5212 5206 5201 5196 5192 5188 5184
5628 5616 5605 5595 5584 5568 5552 5539 5525 5505 5486 5469 5453 5439 5426 5412 5397 5383 5369 5357 5345 5334 5323 5312 5302 5293 5285 5278 5270 5264 5257 5252 5247 5240 5233 5227 5221 5216 5211 5206 5202 5198 5194 5191
5617 5608 5598 5590 5580 5567 5557 5546 5532 5511 5489 5471 5455 5438 5422 5408 5395 5383 5370 5358 5346 5335 5325 5314 5305 5296 5287 5280 5272 5265 5258 5252 5248 5241 5235 5230 5225 5219 5213 5209 5205 5202 5198 5196
5642 5632 5619 5607 5591 5573 5558 5542 5527 5508 5490 5473 5453 5436 5422 5411 5400 5386 5372 5358 5346 5336 5327 5317 5307 5298 5289 5281 5274 5267 5260 5253 5248 5242 5237 5232 5228 5221 5215 5211 5208 5205 5202 5199
5635 5626 5615 5604 5592 5577 5560 5542 5525 5507 5488 5470 5452 5438 5426 5413 5401 5387 5372 5358 5347 5338 5329 5319 5310 5300 5291 5283 5276 5268 5261 5254 5249 5243 5238 5234 5228 5222 5218 5213 5210 5207 5204 5201
5628 5619 5609 5597 5585 5572 5557 5540 5521 5503 5486 5469 5453 5437 5422 5410 5398 5385 5372 5361 5352 5343 5332 5321 5311 5301 5293 5285 5278 5269 5262 5255 5249 5244 5239 5234 5228 5223 5219 5214 5210 5207 5205 5201
5621 5612 5602 5591 5578 5566 5553 5537 5520 5502 5484 5468 5454 5441 5427 5412 5398 5385 5372 5363 5354 5344 5333 5324 5313 5303 5294 5286 5279 5270 5263 5256 5250 5244 5238 5233 5228 5223 5218 5214 5210 5207 5204 5201
5614 5606 5596 5586 5573 5560 5546 5531 5517 5500 5482 5467 5453 5439 5424 5410 5397 5385 5376 5368 5358 5347 5335 5325 5315 5305 5296 5288 5279 5271 5264 5257 5251 5244 5238 5232 5227 5222 5218 5214 5210 5206 5203 5200
5610 5602 5591 5580 5569 5554 5538 5525 5511 5497 5482 5469 5455 5441 5429 5418 5404 5391 5380 5370 5357 5348 5337 5326 5316 5307 5299 5289 5280 5272 5265 5258 5251 5245 5238 5232 5226 5221 5217 5213 5209 5206 5203 5201
5602 5593 5583 5570 5558 5543 5530 5519 5506 5493 5480 5468 5456 5445 5432 5418 5404 5395 5385 5375 5362 5350 5338 5328 5318 5310 5301 5289 5281 5273 5265 5258 5252 5245 5239 5232 5227 5222 5217 5213 5210 5207 5204 5202
5593 5583 5572 5561 5551 5543 5529 5513 5497 5484 5471 5460 5450 5439 5430 5421 5410 5398 5384 5374 5364 5352 5340 5330 5321 5312 5301 5291 5282 5274 5266 5259 5253 5246 5240 5233 5228 5222 5218 5214 5210 5207 5205 5204
5582 5576 5568 5561 5552 5540 5525 5509 5496 5484 5471 5459 5447 5437 5426 5416 5406 5395 5383 5373 5362 5352 5341 5330 5321 5313 5302 5292 5283 5275 5268 5261 5254 5247 5241 5235 5229 5223 5219 5215 5211 5209 5206 5205
5567 5561 5553 5545 5537 5530 5519 5508 5498 5486 5474 5464 5451 5439 5427 5415 5404 5393 5382 5372 5361 5351 5341 5331 5321 5312 5303 5293 5285 5277 5269 5262 5256 5249 5243 5237 5231 5225 5220 5216 5213 5210 5208 5207